Cape Byron Observation History
Time Wind Speed Temp Pressure Rel. Hum Rain
25/01:30pm NE 16-19 kts 28.9°c 1012.0 hPa n/a 0.2mm
25/01:00pm NE 18-21 kts 28.2°c 1012.2 hPa n/a 0.2mm
25/12:30pm NE 15-18 kts 28.8°c 1012.6 hPa n/a 0.2mm
25/12:00pm NE 15-19 kts 28.1°c 1012.7 hPa n/a 0.2mm
25/11:30am NE 11-16 kts 27.8°c 1012.8 hPa n/a 0.2mm
25/11:00am ENE 6-7 kts 27.9°c 1013.2 hPa n/a 0.2mm
25/10:30am NE 6-7 kts 27.2°c 1013.2 hPa n/a 0.2mm
25/10:00am NW 3-5 kts 25.6°c 1013.3 hPa n/a 0.0mm
25/09:30am W 5-6 kts 23.0°c 1013.4 hPa n/a 0.0mm
25/09:00am WNW 4-6 kts 22.4°c 1013.5 hPa n/a 1.2mm
25/08:30am WNW 5-8 kts 22.3°c 1013.5 hPa n/a 1.2mm
25/08:00am WNW 5-7 kts 23.2°c 1013.4 hPa n/a 0.2mm
25/07:30am NW 3-6 kts 23.4°c 1013.2 hPa n/a 0.0mm
25/07:00am W 4-6 kts 22.7°c 1012.9 hPa n/a 0.0mm
25/06:30am WNW 5-9 kts 22.7°c 1012.6 hPa n/a 0.0mm
25/06:00am N 8-12 kts 24.1°c 1012.3 hPa n/a 0.0mm
25/05:30am NNE 8-11 kts 24.2°c 1011.9 hPa n/a 0.0mm
25/05:00am NE 11-15 kts 24.1°c 1011.8 hPa n/a 0.0mm
25/04:30am NE 11-15 kts 24.0°c 1011.8 hPa n/a 0.0mm
25/04:00am NE 12-15 kts 24.1°c 1012.1 hPa n/a 0.0mm
25/03:30am NE 12-17 kts 24.1°c 1012.0 hPa n/a 0.0mm
25/03:00am NE 13-17 kts 24.0°c 1012.2 hPa n/a 0.0mm
25/02:30am NE 15-18 kts 24.0°c 1012.6 hPa n/a 0.0mm
25/02:00am NE 14-18 kts 24.1°c 1012.9 hPa n/a 0.0mm
25/01:30am NE 15-18 kts 24.2°c 1013.2 hPa n/a 0.0mm
25/01:00am NE 14-18 kts 24.3°c 1013.5 hPa n/a 0.0mm
25/12:30am NE 17-20 kts 24.3°c 1013.7 hPa n/a 0.0mm
25/12:00am NE 16-20 kts 24.3°c 1014.0 hPa n/a 0.0mm
Time Wind Speed Temp Pressure Rel. Hum Rain
24/11:30pm NE 16-20 kts 24.3°c 1014.2 hPa n/a 0.0mm
24/11:00pm NE 16-20 kts 24.3°c 1014.4 hPa n/a 0.0mm
24/10:30pm NE 17-20 kts 24.4°c 1014.6 hPa n/a 0.0mm
24/10:00pm NE 18-21 kts 24.4°c 1014.6 hPa n/a 0.0mm
24/09:30pm NE 14-19 kts 24.3°c 1014.4 hPa n/a 0.0mm
24/09:00pm NE 14-19 kts 24.2°c 1014.2 hPa n/a 0.0mm
24/08:30pm NE 16-22 kts 24.3°c 1014.0 hPa n/a 0.0mm
24/08:00pm NE 14-21 kts 24.7°c 1013.8 hPa n/a 0.0mm
24/07:30pm NE 14-20 kts 25.3°c 1013.7 hPa n/a 0.0mm
24/07:00pm NE 14-18 kts 26.0°c 1013.7 hPa n/a 0.0mm
24/06:30pm NE 12-17 kts 26.3°c 1013.4 hPa n/a 0.0mm
24/06:00pm NE 11-15 kts 27.9°c 1013.2 hPa n/a 0.0mm
24/05:30pm ENE 10-14 kts 29.7°c 1013.2 hPa n/a 0.0mm
24/05:00pm ENE 10-15 kts 29.9°c 1013.0 hPa n/a 0.0mm
24/04:30pm ENE 10-13 kts 29.2°c 1013.2 hPa n/a 0.0mm
24/04:00pm ENE 10-15 kts 30.1°c 1013.4 hPa n/a 0.0mm
24/03:30pm ENE 10-13 kts 30.5°c 1013.7 hPa n/a 0.0mm
24/03:00pm ENE 9-13 kts 30.2°c 1014.0 hPa n/a 0.0mm
24/02:30pm ENE 9-11 kts 29.8°c 1014.3 hPa n/a 0.0mm
24/02:00pm ENE 8-9 kts 29.6°c 1014.7 hPa n/a 0.0mm
24/01:30pm ENE 8-9 kts 29.0°c 1015.0 hPa n/a 0.0mm
24/01:00pm E 5-7 kts 27.8°c 1015.4 hPa n/a 0.0mm
24/12:30pm E 4-6 kts 27.0°c 1015.7 hPa n/a 0.0mm
24/12:00pm SSE 5-6 kts 25.5°c 1016.0 hPa n/a 0.0mm
24/11:30am SE 5-7 kts 25.5°c 1016.2 hPa n/a 0.0mm
24/11:00am SE 6-7 kts 25.0°c 1016.4 hPa n/a 0.0mm
24/10:30am SSE 7-9 kts 23.1°c 1016.6 hPa n/a 0.0mm
24/10:00am ESE 7-11 kts 24.0°c 1016.4 hPa n/a 0.0mm
24/09:30am SSW 6-7 kts 23.7°c 1016.2 hPa n/a 0.0mm
24/09:00am SW 5-7 kts 23.4°c 1016.3 hPa n/a 0.0mm
24/08:30am SW 6-9 kts 22.7°c 1016.2 hPa n/a 0.0mm
24/08:00am WSW 7-9 kts 21.8°c 1016.0 hPa n/a 0.0mm
24/07:30am SW 6-7 kts 22.1°c 1015.7 hPa n/a 0.0mm
24/07:00am NNE 4-7 kts 22.6°c 1015.4 hPa n/a 0.0mm
24/06:30am N 5-10 kts 22.7°c 1015.0 hPa n/a 0.0mm
24/06:00am NE 10-13 kts 22.8°c 1014.6 hPa n/a 0.0mm
24/05:30am NE 6-9 kts 22.8°c 1014.5 hPa n/a 0.0mm
24/05:00am SSW 1-3 kts 22.2°c 1014.3 hPa n/a 0.0mm
24/04:30am NW 4 kts 22.9°c 1014.3 hPa n/a 0.0mm
24/04:00am WNW 4-7 kts 23.0°c 1014.5 hPa n/a 0.0mm
24/03:30am NNE 7-10 kts 23.5°c 1014.6 hPa n/a 0.0mm
24/03:00am NE 9-12 kts 23.4°c 1014.7 hPa n/a 0.0mm
24/02:30am NE 11-17 kts 23.4°c 1015.0 hPa n/a 0.0mm
24/02:00am NE 13-15 kts 23.5°c 1015.5 hPa n/a 0.0mm
24/01:30am NE 12-15 kts 23.6°c 1015.7 hPa n/a 0.0mm
24/01:00am NE 12-15 kts 22.7°c 1015.8 hPa n/a 0.0mm
24/12:30am NE 14-16 kts 23.4°c 1016.0 hPa n/a 0.0mm
24/12:00am NE 12-16 kts 22.9°c 1016.3 hPa n/a 0.0mm
Time Wind Speed Temp Pressure Rel. Hum Rain
23/11:30pm NE 10-16 kts 22.9°c 1016.6 hPa n/a 0.0mm
23/11:00pm ENE 10-13 kts 23.0°c 1016.5 hPa n/a 0.0mm
23/10:30pm ENE 9-13 kts 23.0°c 1016.6 hPa n/a 0.0mm
23/10:00pm NE 11-14 kts 23.2°c 1016.5 hPa n/a 0.0mm
23/09:30pm ENE 9-12 kts 23.3°c 1016.3 hPa n/a 0.0mm
23/09:00pm NE 9-13 kts 23.1°c 1016.1 hPa n/a 0.0mm
23/08:30pm ENE 7-11 kts 23.4°c 1015.7 hPa n/a 0.0mm
23/08:00pm ENE 7-11 kts 23.8°c 1015.5 hPa n/a 0.0mm
23/07:30pm ENE 8-13 kts 25.4°c 1015.3 hPa n/a 0.0mm
23/07:00pm ENE 8-11 kts 26.3°c 1015.2 hPa n/a 0.0mm
23/06:30pm NE 9-13 kts 28.8°c 1015.0 hPa n/a 0.0mm
23/06:00pm NE 8-11 kts 29.2°c 1014.6 hPa n/a 0.0mm
23/05:30pm NE 9-11 kts 29.7°c 1014.5 hPa n/a 0.0mm
23/05:00pm NE 9-13 kts 30.1°c 1014.5 hPa n/a 0.0mm
23/04:30pm ENE 7-10 kts 30.0°c 1014.4 hPa n/a 0.0mm
23/04:00pm NE 9-12 kts 30.4°c 1014.6 hPa n/a 0.0mm
23/03:30pm NE 9-11 kts 30.5°c 1014.7 hPa n/a 0.0mm
23/03:00pm ENE 9-12 kts 30.5°c 1014.6 hPa n/a 0.0mm
23/02:30pm NE 10-13 kts 30.2°c 1014.8 hPa n/a 0.0mm
23/02:00pm ENE 9-12 kts 30.3°c 1014.9 hPa n/a 0.0mm
23/01:30pm NE 11-13 kts 30.5°c 1015.0 hPa n/a 0.0mm
23/01:00pm NE 9-12 kts 30.1°c 1015.3 hPa n/a 0.0mm
23/12:30pm NE 9-11 kts 29.8°c 1015.4 hPa n/a 0.0mm
23/12:00pm NNE 9-12 kts 27.9°c 1015.6 hPa n/a 0.0mm
23/11:30am NNE 7-10 kts 27.5°c 1015.5 hPa n/a 0.0mm
23/11:00am NNE 7-11 kts 27.0°c 1015.5 hPa n/a 0.0mm
23/10:30am N 5-8 kts 26.6°c 1015.6 hPa n/a 0.0mm
23/10:00am N 5-6 kts 26.3°c 1015.6 hPa n/a 0.0mm
23/09:30am NNW 5-7 kts 25.4°c 1015.4 hPa n/a 0.0mm
23/09:00am NNW 5-7 kts 24.7°c 1015.4 hPa n/a 0.0mm
23/08:30am NW 5-7 kts 24.1°c 1015.1 hPa n/a 0.0mm
23/08:00am NW 4-6 kts 23.0°c 1015.0 hPa n/a 0.0mm
23/07:30am NW 4-6 kts 21.9°c 1014.7 hPa n/a 0.0mm
23/07:00am WNW 5-7 kts 20.3°c 1014.3 hPa n/a 0.0mm
23/06:30am NW 5-7 kts 20.6°c 1014.1 hPa n/a 0.0mm
23/06:00am NW 5-6 kts 20.7°c 1013.6 hPa n/a 0.0mm
23/05:30am NW 5-7 kts 20.9°c 1013.2 hPa n/a 0.0mm
23/05:00am NW 4-6 kts 21.1°c 1013.0 hPa n/a 0.0mm
23/04:30am NW 5-7 kts 20.8°c 1012.9 hPa n/a 0.0mm
23/04:00am WNW 4-7 kts 20.9°c 1012.7 hPa n/a 0.0mm
23/03:30am NW 5-6 kts 20.9°c 1012.8 hPa n/a 0.0mm
23/03:00am WNW 5-7 kts 21.0°c 1013.0 hPa n/a 0.0mm
23/02:30am WNW 4-6 kts 21.6°c 1013.2 hPa n/a 0.0mm
23/02:00am NW 4-7 kts 22.5°c 1013.4 hPa n/a 0.0mm
23/01:30am NW 4-8 kts 23.2°c 1013.6 hPa n/a 0.0mm
23/01:00am N 8-13 kts 23.5°c 1013.7 hPa n/a 0.0mm
23/12:30am N 11-15 kts 24.0°c 1013.8 hPa n/a 0.0mm
23/12:00am N 11-17 kts 24.1°c 1013.9 hPa n/a 0.0mm